Regional Weather Roundup
Issued by NWS Kansas City/Pleasant Hill, MO

Home | Current Version | Previous Version | Graphics & Text | Print | Product List | Glossary Off
Versions: 1 2 3 4 5 6 7 8 9 10 11 12 13 14 15 16 17 18 19 20 21 22 23 24 25 26 27 28 29 30 31 32 33 34 35 36 37 38 39 40 41 42 43 44 45 46 47 48 49 50

000
ASUS43 KEAX 200010
RWREAX

WEATHER ROUNDUP FOR EASTERN KANSAS AND NORTHWEST MISSOURI
NATIONAL WEATHER SERVICE KANSAS CITY/PLEASANT HILL MO
700 PM CDT SUN OCT 19 2014

KSZ040-057-103>105-MOZ028-029-037-043-200100-
...KANSAS CITY METROPOLITAN AREA...

CITY           SKY/WX    TMP DP  RH WIND       PRES   REMARKS
K.C. INTL      MOCLDY    62  49  62 S8        30.01S
6HR MIN TEMP:  62; 6HR MAX TEMP:  68;

K.C. DOWNTOWN  CLEAR     65  48  54 S7        30.01S
6HR MIN TEMP:  64; 6HR MAX TEMP:  70;

LEES SUMMIT    CLEAR     62  48  60 S7        30.03S
6HR MIN TEMP:  62; 6HR MAX TEMP:  68;

OLATHE - IXD   CLEAR     58  50  75 S7        30.03S
6HR MIN TEMP:  57; 6HR MAX TEMP:  69;

OLATHE - OJC   CLEAR     60  50  69 S5        30.02S
6HR MIN TEMP:  60; 6HR MAX TEMP:  68;

LAWRENCE       CLEAR     60  46  59 S6        30.01S

$$

MOZ001>008-011>017-020>025-030>033-038>040-044>046-053-054-200100-
...NORTHERN AND CENTRAL MISSOURI...

CITY           SKY/WX    TMP DP  RH WIND       PRES   REMARKS
ST. JOSEPH     CLOUDY    61  48  62 S7        29.99S
6HR MIN TEMP:  60; 6HR MAX TEMP:  71;

MOSBY          MOCLDY    63  48  59 CALM      30.01R
WHITEMAN AFB   PTCLDY    56  49  77 SW8       30.03S
6HR MIN TEMP:  56; 6HR MAX TEMP:  67;

CLINTON        CLEAR     61  50  67 CALM      30.05S
SEDALIA        PTCLDY    59  47  64 S7        30.04S
6HR MIN TEMP:  59; 6HR MAX TEMP:  68;

WARSAW         NOT AVBL
MARSHALL       MOCLDY    66  48  52 S6        30.03S
CHILLICOTHE      N/A     58  49  72 CALM      30.01S
6HR MIN TEMP:  58; 6HR MAX TEMP:  67;

KIRKSVILLE     PTCLDY    56  44  64 S7        30.00F
6HR MIN TEMP:  56; 6HR MAX TEMP:  64;


$$

MOZ041-047>049-056>058-063>065-088>090-097-200100-
...EASTERN AND SOUTHERN MISSOURI...

CITY           SKY/WX    TMP DP  RH WIND       PRES   REMARKS
ST. LOUIS INTL PTCLDY    61  45  55 CALM      30.06S
6HR MIN TEMP:  60; 6HR MAX TEMP:  64;

SPIRIT OF STL  PTCLDY    53  48  83 CALM      30.05R
COLUMBIA       PTCLDY    58  45  62 S6        30.04F
JEFFERSON CITY PTCLDY    61  45  55 SE3       30.04F
ROLLA          CLEAR     54  43  66 S6        30.05S
OSAGE BEACH    PTCLDY    61  45  55 SW7       30.06S
SPRINGFIELD    CLEAR     58  50  75 S7        30.07R
BRANSON        PTCLDY    55  48  76 SE3       30.10S
NEVADA         CLEAR     59  52  77 S5        30.06S
JOPLIN         MOCLDY    60  53  77 CALM      30.07S
WEST PLAINS    PTCLDY    53  46  77 S3        30.10S HAZE

$$

IAZ060-094-KSZ022-034>040-054-083-096-NEZ052-066-093-200100-
...KANSAS...SOUTHEAST NEBRASKA AND IOWA...

CITY           SKY/WX    TMP DP  RH WIND       PRES   REMARKS
TOPEKA         CLEAR     67  49  52 S6        30.00S
6HR MIN TEMP:  66; 6HR MAX TEMP:  72;

MANHATTAN      CLEAR     62  50  64 SW5       29.99R
EMPORIA        CLOUDY    63  49  60 S6        30.02
CHANUTE        CLOUDY    62  54  74 SE6       30.05S
WICHITA        MOCLDY    68  54  60 SE8       30.00S
OMAHA          PTCLDY    68  47  46 S6        29.93S
LINCOLN        CLEAR     65  47  52 SW5       29.96S
FALLS CITY     PTCLDY    66  47  50 S3        29.97S
LAMONI         CLEAR     58  47  66 S9        29.97S
DES MOINES     PTCLDY    62  46  55 SW9       29.94R

$$




USA.gov is the U.S. government's official web portal to all federal, state and local government web resources and services.